Simultaneous Nadir Overpasses (SNOs) Predictions

Prediction of SNOs between LANDSAT-8 and METOP-A Satellite Orbit:

Table of predicted SNOs for the next 14.0 days since TLE Epoch: 11/18/2017
Index Date (LANDSAT-8) Time (LANDSAT-8) Lat,Lon (LANDSAT-8) SZA (LANDSAT-8 ) Date (METOP-A) Time (METOP-A) Lat,Lon (METOP-A) SZA (METOP-A ) Distance(km) Time Diff (sec)
1 11/19/2017 14:37:58 -81.27,-177.17 76.62 11/19/2017 14:37:23 -81.27,-177.01 76.62 2.79 35
2 11/19/2017 15:27:24 81.28, -9.42 103.41 11/19/2017 15:28:03 81.28, -9.42 103.42 0.12 39
3 11/22/2017 10:12:13 -81.25,-111.06 76.07 11/22/2017 10:11:43 -81.26,-111.15 76.09 1.55 30
4 11/22/2017 11:01:38 81.28, 57.04 104.01 11/22/2017 11:02:21 81.28, 57.17 104.04 2.24 43
5 11/25/2017 05:46:25 -81.28, -44.25 75.47 11/25/2017 05:45:59 -81.27, -44.16 75.48 1.54 26
6 11/25/2017 06:35:51 81.28, 123.45 104.55 11/25/2017 06:36:39 81.28, 123.35 104.56 1.75 48
7 11/28/2017 01:20:39 -81.27, 22.14 74.99 11/28/2017 01:20:18 -81.27, 22.03 75.01 1.86 21
8 11/28/2017 02:10:05 81.27,-170.19 105.03 11/28/2017 02:10:57 81.28,-170.12 105.06 1.42 52
9 11/30/2017 20:54:53 -81.27, 88.47 74.56 11/30/2017 20:54:36 -81.27, 88.58 74.56 1.91 17




NCC Satellite Simultaneous Nadir Overpasses (SNOs) Prediction Service
